Other Public Products
Issued by NWS Grand Forks, ND

Home | Current Version | Previous Version | Graphics & Text | Print | Product List | Glossary On
Versions: 1 2 3 4 5 6 7 8 9 10 11 12 13 14 15 16 17 18 19 20 21 22 23 24 25 26 27 28 29 30 31 32 33 34 35 36 37 38 39 40 41 42 43 44 45 46 47 48 49 50
000
FPUS83 KFGF 220910
OPUFGF
PRAIRIE TO PINES WEATHER ROUNDUP
NATIONAL WEATHER SERVICE EASTERN NORTH DAKOTA/GRAND FORKS ND
400 AM CDT WED MAR 22 2017

 **SATELLITE DATA USED TO AUGMENT SKY COVER AT AUTOMATED STATIONS**
 *****  WEATHER ACROSS EASTERN NORTH DAKOTA  *****

CITY           SKY/WX    TMP DP  RH WIND       PRES   REMARKS
GRAND FORKS    FAIR      17   8  67 SE3       30.49F
GRAND FORKS AF CLEAR     12  10  92 NE3       30.49F
GRAND CITY NWS NOT AVBL
BUXTON         NOT AVBL
DEVILS LAKE    FAIR      15  11  83 SE15      30.42F WCI   0
FARGO          FAIR      20  10  65 SE6       30.49F WCI  12
WAHPETON ARPT  FAIR      21  10  63 SE10      30.50F WCI  10
$$

 *****  WEATHER ACROSS CENTRAL AND WESTERN NORTH DAKOTA  *****

CITY           SKY/WX    TMP DP  RH WIND       PRES   REMARKS
JAMESTOWN      FAIR      17  14  88 SE12      30.40F WCI   4
BISMARCK       CLOUDY    25  17  72 SE20      30.31F WCI  11
MINOT          CLOUDY    22  16  78 SE16      30.27F WCI   8
MINOT AFB      CLOUDY    21  16  82 SE21      30.26F WCI   5
GARRISON         N/A     23  17  78 SE20      30.24F WCI   8
WILLISTON      MOCLDY    29  20  69 SE13      30.10F WCI  19
DICKINSON      CLOUDY    27  18  69 SE25G38   30.07F WCI  12
HETTINGER      CLOUDY    26  19  74 SE21G29   30.12F WCI  12
$$

 *****  OTHER OBSERVATIONS NORTHEAST NORTH DAKOTA  *****

CITY           SKY/WX    TMP DP  RH WIND       PRES   REMARKS
WALHALLA       NOT AVBL
LANGDON        NOT AVBL
CAVALIER       NOT AVBL
GRAFTON        FAIR      18  14  86 E9        30.52F WCI   6
CANDO          NOT AVBL
FORT TOTTEN      N/A     13  11  90 SE7       29.95S WCI   3
ROLLA          PTSUNNY   10   9  92 S15       30.36F WCI  -6
RUGBY            N/A     14  10  85 SE15      30.35F WCI  -1
 ***** THE ABOVE OBSERVATIONS ARE NON NWS ARE NOT QUALITY
        CONTROLLED AND MAY MIS-REPORT RAIN FOR SNOW...
$$

 *****  OTHER OBSERVATIONS SOUTHEAST NORTH DAKOTA *****

CITY           SKY/WX    TMP DP  RH WIND       PRES   REMARKS
COOPERSTOWN    FAIR      16  14  93 E14       30.44F WCI   1
VALLEY CITY    FAIR      16  16 100 E7        30.45S WCI   6
OAKES          NOT AVBL
GWINNER        SUNNY     16  14  93 MISG      30.45F
SHEYENNE NWR     N/A     12   8  84 E3        29.95S
BUFFALO        NOT AVBL
WYNDMERE       NOT AVBL
 ***** THE ABOVE OBSERVATIONS ARE NON NWS ARE NOT QUALITY
       CONTROLLED AND MAY MIS-REPORT RAIN FOR SNOW...
$$

  *****  WEATHER ACROSS NORTHERN MINNESOTA  *****

CITY           SKY/WX    TMP DP  RH WIND       PRES   REMARKS
FLAG ISLAND    FAIR      10   7  85 CALM      30.53F
WARROAD        FAIR      12   7  79 E3        30.53F
ROSEAU         FAIR      16   9  73 SE3       30.51F
HALLOCK        FAIR      18  10  73 E8        30.50F WCI   7
THF RVR FALLS  FAIR      18   6  59 SE10      30.50F WCI   6
HALSTAD          N/A     19  12  76 SE6         N/A  WCI  10
FOSSTON        FAIR      12   3  67 E6        30.49F WCI   3
BAUDETTE       FAIR       9   5  84 CALM      30.53F
WASKISH        FAIR       9   5  85 SE3       30.53F
CROOKSTON      FAIR      19   9  63 SE10      30.51F WCI   8
$$
  *****  WEATHER ACROSS CENTRAL AND WEST MINNESOTA  *****

CITY           SKY/WX    TMP DP  RH WIND       PRES   REMARKS
BEMIDJI        FAIR       9   5  82 E3        30.50F
PARK RAPIDS    FAIR      16  -1  47 E8        30.49F WCI   5
WADENA         FAIR      14   3  62 E6        30.49F WCI   5
DETROIT LAKES  FAIR      19   5  53 SE7       30.48F WCI  10
MOORHEAD       FAIR      19  10  68 SE6       30.50F WCI  11
FERGUS FALLS   FAIR      19   3  49 SE8       30.54F WCI   9
ELBOW LAKE     FAIR      17   7  65 SE9       30.49F WCI   6
MORRIS MN      FAIR      18  10  73 E8        30.48F WCI   7
STAPLES        FAIR      10   7  85 CALM      30.51F
WHEATON        FAIR      18  10  73 SE8       30.51F WCI   7
$$
  *****  WEATHER ELSEWHERE ACROSS MINNESOTA  *****

CITY           SKY/WX    TMP DP  RH WIND       PRES   REMARKS
DULUTH         FAIR      14   0  53 NE7       30.53F WCI   4
INTRNTL FALLS  FAIR       7   2  80 CALM      30.54F
ELY            FAIR       3   0  85 CALM      30.55S
CLOQUET        FAIR      14   0  52 CALM      30.54F
BRAINERD       FAIR      12   5  73 CALM      30.53F
HIBBING        FAIR       6   3  87 N3        30.53F
ALEXANDRIA     FAIR      17   5  59 E6        30.49F WCI   9
SAINT CLOUD    FAIR      19   6  57 E5        30.53F WCI  12
MINNEAPOLIS    FAIR      23   4  44 E7        30.54F WCI  15
$$

  *****  WEATHER ACROSS SOUTH DAKOTA  *****

CITY           SKY/WX    TMP DP  RH WIND       PRES   REMARKS
SIOUX FALLS    MOCLDY    26  20  77 E7        30.45S WCI  18
BROOKINGS      CLOUDY    23  15  71 SE12      30.44S WCI  12
WATERTOWN      MOCLDY    21  13  71 SE9       30.42F WCI  11
HURON          CLOUDY    27  18  69 SE10      30.42F WCI  17
SISSETON         N/A     17  14  88 S5        30.47F WCI  10
ABERDEEN       CLOUDY    22  15  75 SE6       30.44F WCI  14
MITCHELL       CLOUDY    28  19  69 SE13      30.44F WCI  17
PIERRE         CLOUDY    27  25  92 SE17      30.29F WCI  14
MOBRIDGE       CLOUDY    27  17  66 SE20G25   30.27F WCI  13
RAPID CITY     CLOUDY    31  30  96 S18       30.08F WCI  19
$$

  *****  SOME WEATHER IN NEARBY STATES *****

CITY           SKY/WX    TMP DP  RH WIND       PRES   REMARKS
GLASGOW MT     CLOUDY    33  28  81 SE17      29.93F WCI  22
GREAT FALLS MT FAIR      45  31  58 S17       29.72F
CHEYENNE WY    FAIR      33  27  78 S8        30.10F
SCOTTSBLUFF NE FAIR      37  30  75 SE14      30.13F
OMAHA NE       CLOUDY    35  19  52 NE8       30.43F
DES MOINES IA  FAIR      31  16  54 NE10      30.46S WCI  22
DAVENPORT IA   FAIR      28  23  81 E9        30.47S WCI  19
CHICAGO IL     CLOUDY    31  17  56 NE20G29   30.47R WCI  19
EAU CLAIRE WI  FAIR      16  11  80 NE3       30.54F
LA CROSSE WI   FAIR      25   6  44 NE8       30.55S WCI  16
$$

  *****  SOME NATIONAL WEATHER *****

CITY           SKY/WX    TMP DP  RH WIND       PRES   REMARKS
LA GUARDIA NY  FAIR      45  26  47 NW17      29.89R
RALEIGH NC     MOCLDY    56  46  69 NE3       29.93R
ATLANTA GA     FAIR      59  56  89 NW16      30.01F
NEW ORLEANS LA MOCLDY    65  64  97 SW3       30.10S
OKLAHOMA CITY  MOCLDY    54  40  59 N12       30.12R
ALBUQUERQUE NM FAIR      56  23  27 N3        30.11F
SALT LAKE CITY CLOUDY    55  43  63 N10       29.92S
LOS ANGELES CA   N/A     58  58 100 NE3       30.04F FOG
BOISE ID       FAIR      46  39  76 SE12      29.90F
SEATTLE WA     MOCLDY    47  44  90 E9        29.72F
$$

*** WEATHER ACROSS MANITOBA...SASKATCHEWAN AND ONTARIO ***
                ***ONTARIO***

CITY           SKY/WX    TMP DP  RH WIND       PRES   REMARKS
GERALDTON      CLEAR     -8 -13  77 VRB2      30.50R
THUNDER BAY    CLEAR      9   1  72 W3        30.60S
SIOUX LOOKOUT  CLEAR     -9 -13  84 S2        30.53R
TORONTO        PTCLDY    19  -2  38 N20G31    30.29R WCI   4
BIG TROUT LK   CLEAR     -2 -11  65 W7        30.44F WCI -16
PICKLE LAKE    NOT AVBL
DRYDEN         CLEAR      5  -2  72 S3        30.52S
KENORA         CLEAR      9  -6  52 SE3       30.51F
$$
                *** MANITOBA***

CITY           SKY/WX    TMP DP  RH WIND       PRES   REMARKS
BRANDON        MOCLDY    10   5  79 SE14      30.39F WCI  -5
DAUPHIN        CLOUDY    10   3  72 SE9       30.38F WCI  -2
ISLAND LAKE    NOT AVBL
PILOT MOUND      N/A      9   5  85 SE13        N/A  WCI  -7
THE PAS        MOCLDY     9  -4  56 SE9       30.31F WCI  -5
THOMPSON       PTCLDY     0 -15  50 S2        30.37F
WINNIPEG       CLOUDY    14   5  67 SE10      30.51F WCI   1
LYNN LAKE      CLEAR     -8 -13  77 SE5       30.25F WCI -19
CHURCHILL      CLEAR     -4 -11  71 W8        30.24F WCI -19
GILLAM         CLEAR     -2 -15  55 SW7       30.37S WCI -16
$$
                ***SASKATCHEWAN***

CITY           SKY/WX    TMP DP  RH WIND       PRES   REMARKS
ESTEVAN        PTCLDY    19  16  86 SE18G24   30.15F WCI   4
KINDERSLEY     MOCLDY    28  23  80 SE18G24   29.78F WCI  16
LLOYDMINSTER   CLOUDY    28  21  74 SE20G25   29.82F WCI  15
PRINCE ALBERT  CLOUDY    19  14  79 E14       30.08F WCI   6
REGINA         CLOUDY    19  14  79 SE28G37   30.05F WCI   1
YORKTON        CLOUDY    14   9  79 SE16G23   30.22F WC



USA.gov is the U.S. government's official web portal to all federal, state and local government web resources and services.